Location: Gloden
(48.4833°N, 15.3167°E)
Time: 08:54:29
(UTC+00:00)

PAYLOAD B - Pass Details

Date: 15 December 2019
Orbit: 850 x 871 km, 99.1° (Epoch: 28 January)

Event Time Altitude Azimuth Distance (km) Brightness Sun altitude
Rises 04:56:20 0° 12° (NNE) 3,434 7.3 -16.8°
Reaches altitude 10° 04:58:43 10° 10° (N) 2,496 6.6 -16.4°
Maximum altitude 05:04:11 65° 290° (WNW) 943 4.2 -15.5°
Drops below altitude 10° 05:09:39 10° 210° (SSW) 2,492 6.5 -14.7°
Sets 05:12:03 0° 207° (SSW) 3,428 7.3 -14.3°
